Погода в Роскоммоне

Ирландия     53°37′55″N   8°11′25″W
темп.,
°C
ветер,
м/с
пор.,
м/с
влажн.,
%
обл.,
%
осадки,
мм/ч
давл.,
гПа
погр.,
м
15 августа, пн
пн1501:00+16в2695100 2.0 1004164
04:00+15св2294100 0.2 100335
07:00+14ссв369799 0.2 1003144
10:00+18св238450 0.1 1004603
13:00+20ссз447369 1.3 10041020
16:00+19ссз677651 1.3 1005762
19:00+18ссз687528 1.3 1006749
22:00+14ссз611875 0.0 1008466
16 августа, вт
вт1601:00+13ссз5108397 0.0 1009663
04:00+13ссз5107740 0.0 1010814
07:00+13ссз6106688 0.0 1011868
10:00+15с710650 0.0 10121343
13:00+16с7960100 0.0 10131547
16:00+15ссз796199 0.0 10151456
19:00+14ссз79640 0.0 10161172
22:00+10ссз411740 0.0 1018478
17 августа, ср
ср1701:00+10ссз411800 0.0 1019387
04:00+7сз378861 0.0 1019147
07:00+8ссз2588100 0.0 1019110
10:00+13ссз3364100 0.0 1019631
13:00+16зсз3355100 0.0 10191056
16:00+16з3458100 0.0 1018755
19:00+12зюз3675100 0.0 1018306
22:00+11ююз4987100 0.1 1017440
18 августа, чт
чт1801:00+12ю41188100 0.1 1015431
04:00+13ююз51292100 0.1 1013427
07:00+14ююз51198100 0.3 1012389
10:00+16ююз51298100 2.3 1011644
13:00+18зюз61095100 4.4 1010708
16:00+20з710615 0.4 10101461
19:00+16з610700 0.4 10121294
22:00+14з61057100 0.0 10131399
19 августа, пт
пт1901:00+13зюз510730 0.0 1014662
04:00+9юз310950 0.0 1015254
07:00+10юз411928 0.1 1015334
10:00+15зюз697027 0.1 10161182
13:00+16зюз5866100 0.3 10171486
16:00+16зюз586897 0.1 10181283
19:00+16з576690 0.2 10181050
22:00+11зюз38907 0.0 1019204